Regional Weather Roundup
Issued by NWS

Home | Current Version | Previous Version | Text Only | Print | Product List | Glossary Off
Versions: 1 2 3 4 5 6 7 8 9 10 11 12 13 14 15 16 17 18 19 20 21 22 23 24 25 26 27 28 29 30 31 32 33 34 35 36 37 38 39 40 41 42 43 44 45 46 47 48 49 50

000
ASUS43 KOAX 260402
RWRNE

WEATHER ROUNDUP FOR NEBRASKA
NATIONAL WEATHER SERVICE OMAHA NE
1100 PM CDT FRI JUL 25 2014

NOTES: SATELLITE DATA IS BEING USED TO AUGMENT CLOUD COVER ABOVE
       12000 FEET.
       "FAIR" INDICATES FEW OR NO CLOUDS BELOW 12,000 FEET WITH NO
       SIGNIFICANT WEATHER AND/OR OBSTRUCTIONS TO VISIBILITY.

  * THESE STATIONS DO NOT REPORT WEATHER SUCH AS RAIN...SNOW OR FOG.

NEZ001>004-019>022-054>056-260500-
NEBRASKA PANHANDLE

CITY           SKY/WX    TMP DP  RH WIND       PRES   REMARKS
SCOTTSBLUFF    PTCLDY    69  62  78 E8        29.95R
ALLIANCE       PTCLDY    69  58  67 S12       29.93F
CHADRON        CLEAR     80  54  40 S24G38    29.81F
KIMBALL        MOCLDY    68  59  73 S9        30.03S
SIDNEY         CLOUDY    72  57  59 S9        30.02R
$$

NEZ057>060-069>072-079>082-260500-
SOUTHWEST NEBRASKA

CITY           SKY/WX    TMP DP  RH WIND       PRES   REMARKS
NORTH PLATTE   CLOUDY    80  68  66 N6        29.93R
IMPERIAL       CLOUDY    78  67  68 CALM      29.95R
LEXINGTON      MOCLDY    74  71  89 N7        29.88R
MCCOOK         MOCLDY    78  68  71 CALM      29.89R
OGALLALA       CLOUDY    77  62  59 SE5       29.97F
$$

NEZ005>010-023>029-035>040-094-260500-
NORTH CENTRAL NEBRASKA

CITY           SKY/WX    TMP DP  RH WIND       PRES   REMARKS
VALENTINE      MOCLDY    77  60  55 E8        29.87S
AINSWORTH      CLOUDY    76  67  73 SE5       29.88S
BROKEN BOW     CLOUDY    76  71  85 NW5       29.91R
O`NEILL        PTCLDY    77  69  75 NE12      29.88R
ORD            CLOUDY    76  72  87 N5        29.86R
THEDFORD       CLOUDY    81  67  61 S10       29.90F
$$

NEZ041-046>049-061>064-073>077-083>087-260500-
SOUTH CENTRAL NEBRASKA

CITY           SKY/WX    TMP DP  RH WIND       PRES   REMARKS
GRAND ISLAND   CLOUDY    75  72  90 E3        29.84R
AURORA         MOCLDY    75  75  99 CALM      29.83R FOG
HASTINGS       CLOUDY    78  70  76 CALM      29.84R
HEBRON         PTCLDY    76  71  85 CALM      29.81R
HOLDREGE       MOCLDY    74  69  82 CALM      29.86R
KEARNEY *      CLOUDY    73  68  83 SE5       29.86R
YORK           PTCLDY    75  75 100 CALM      29.82S FOG
$$

NEZ011>018-030>034-042>045-260500-
NORTHEAST NEBRASKA

CITY           SKY/WX    TMP DP  RH WIND       PRES   REMARKS
NORFOLK        CLOUDY    78  73  84 E3        29.82R
ALBION         CLOUDY    76  73  90 CALM      29.84S
BLAIR          CLEAR     78  74  88 NE8       29.80R
COLUMBUS *     MOCLDY    75  73  94 N3        29.82R
FREMONT        PTCLDY    81  77  87 CALM      29.80R
WAYNE          MOCLDY    74  72  93 CALM      29.83R
$$

NEZ050>053-065>068-078-088>093-260500-
SOUTHEAST NEBRASKA

CITY           SKY/WX    TMP DP  RH WIND       PRES   REMARKS
LINCOLN        PTCLDY    80  75  84 CALM      29.79R
OMAHA EPPLEY   MOCLDY    80  74  81 E6        29.78R
BEATRICE       CLEAR     79  75  87 CALM      29.80R
FALLS CITY     CLEAR     85  72  65 W7        29.76R HX  91
NEBRASKA CITY  CLEAR     82  75  81 NW6       29.77S
PLATTSMOUTH    CLEAR     80  76  89 NE3       29.78R
$$

NEZ044-045-051>053-067-260500-
OMAHA AREA

CITY           SKY/WX    TMP DP  RH WIND       PRES   REMARKS
OMAHA EPPLEY   MOCLDY    80  74  81 E6        29.78R
BLAIR          CLEAR     78  74  88 NE8       29.80R
FREMONT        PTCLDY    81  77  87 CALM      29.80R
MILLARD        CLEAR     83  77  82 CALM      29.77R HX  92
OFFUTT AFB     CLEAR     79  78  99 NE7       29.77R
PLATTSMOUTH    CLEAR     80  76  89 NE3       29.78R
WAHOO          FAIR      78  75  89 N5        29.79R FOG
$$



USA.gov is the U.S. government's official web portal to all federal, state and local government web resources and services.